{"data":{"norad_id":44333,"intl_designator":"2019-034A","name":"AT&T T-16","alt_names":[],"object_type":"PAYLOAD","status":"ACTIVE","operator":null,"country":"US","launch_date":"2019-06-20","launch_site_code":"FRGUI","launch_vehicle":null,"mission":null,"orbit_class":"UNKNOWN","rcs_meters":null,"size_class":null,"mass_kg":null,"dimensions":null,"purposes":["comms"],"wikipedia_slug":null,"has_3d_model":false,"image_url":null,"decayed_at":null,"tle_current":{"epoch":"2026-09-19T14:56:15.780768Z","epoch_age_seconds":90296,"freshness":"FRESH","line1":"1 44333U 19034A   26262.62240487 -.00000119  00000+0  00000+0 0  9995","line2":"2 44333   0.0151 128.5595 0000823 293.6656  59.5236  1.00270956 26582","mean_motion":1.00270956,"eccentricity":8.23e-5,"inclination_deg":0.0151,"raan_deg":128.5595,"arg_perigee_deg":293.6656,"mean_anomaly_deg":59.5236,"bstar":0,"rev_number":2658,"period_min":1436.1087771019,"perigee_km":35783.357185018,"apogee_km":35790.297538152,"semimajor_km":42164.964361585,"source":"CELESTRAK","updated_at":"2026-09-20T09:00:35.524218Z"}}}